Regional Weather Roundup
Issued by NWS

Home | Current Version | Previous Version | Graphics & Text | Print | Product List | Glossary On
Versions: 1 2 3 4 5 6 7 8 9 10 11 12 13 14 15 16 17 18 19 20 21 22 23 24 25 26 27
000
ASUS45 KCYS 270510
RWRWY

WYOMING REGIONAL WEATHER ROUNDUP
NATIONAL WEATHER SERVICE CHEYENNE WY
1100 PM MDT THU MAY 26 2016

NOTE:  "FAIR" INDICATES FEW OR NO CLOUDS BELOW 12,000 FEET
WITH NO SIGNIFICANT WEATHER AND/OR OBSTRUCTIONS TO VISIBILITY.

WYZ001-270600-
YELLOWSTONE NATIONAL PARK

CITY           SKY/WX    TMP DP  RH WIND       PRES   REMARKS
LK YELLOWSTONE   N/A     34  32  92 CALM      30.11F
W YELLOWSTONE  NOT AVBL

$$
WYZ002>013-054>058-071-098>099-270600-
NORTHERN WYOMING

CITY           SKY/WX    TMP DP  RH WIND       PRES   REMARKS
JACKSON        CLOUDY    45  37  76 NE6       30.03S
CODY           FAIR      48  37  66 CALM      29.95F
GREYBULL       FAIR      53  46  77 W6        29.93S
WORLAND        FAIR      48  44  86 SW7       29.94F
SHERIDAN       CLOUDY    54  44  69 W10       29.93S
BUFFALO        CLOUDY    52  43  71 W3        29.95F
GILLETTE       MOCLDY    45  39  79 W7        29.92F
HULETT         FAIR      50  43  76 S3        29.94R
NEWCASTLE      FAIR      52  34  50 N7        29.93R

$$
WYZ014>020-022>026-101>103-270600-
CENTRAL WYOMING

CITY           SKY/WX    TMP DP  RH WIND       PRES   REMARKS
BIG PINEY      FAIR      41  35  79 N12       30.02S
PINEDALE       FAIR      41  34  75 NW12      30.03S
DUBOIS         FAIR      39  32  75 CALM      30.04S
LANDER         CLOUDY    50  36  58 CALM      29.99R
RIVERTON       LGT RAIN  52  39  61 NE15      30.00S
CASPER         FAIR      42  37  82 NW7       29.96R
DOUGLAS          N/A    N/A N/A N/A MISG      29.95R

$$
WYZ021-027>030-104>119-270600-
SOUTHERN WYOMING

CITY           SKY/WX    TMP DP  RH WIND       PRES   REMARKS
EVANSTON       MOCLDY    43  35  73 S7        30.05S
KEMMERER         N/A     43  34  70 NW8       30.04S
FORT BRIDGER   CLOUDY    45  37  76 W16G22    30.07R
ROCK SPRINGS   LGT RAIN  48  37  65 N14G20    30.01R
DIXON          CLOUDY    48  37  65 CALM      29.98F
RAWLINS        FAIR      43  36  76 N9        29.98S
SARATOGA       FAIR      37  32  81 S5        29.98S WCI  34
LARAMIE        FAIR      40  35  83 N6        29.97F
CHEYENNE       FAIR      47  38  71 NW8       29.91F
TORRINGTON     FAIR      49  43  80 NW7       29.86F
PINE BLUFFS    LGT RAIN  46  45  93 NW9       29.88F

$$




USA.gov is the U.S. government's official web portal to all federal, state and local government web resources and services.